Location: Newark
(42.7133°N, 87.7910°W)
Time: 12:52:44
(UTC+00:00)

Tiros 1 - Pass Details

Date: 26 September 2019
Orbit: 630 x 664 km, 48.4° (Epoch: 20 October)

Event Time Altitude Azimuth Distance (km) Brightness Sun altitude
Rises 18:10:41 0° 266° (W) 2,978 10.7 45.5°
Reaches altitude 10° 18:13:07 10° 272° (W) 2,062 9.9 45.4°
Maximum altitude 18:17:43 48° 347° (NNW) 848 7.9 45.2°
Drops below altitude 10° 18:22:18 10° 63° (ENE) 2,043 9.5 45.0°
Sets 18:24:42 0° 69° (ENE) 2,948 10.3 44.9°
